Location: Alt?nova Orta
(36.9295°N, 30.7847°E)
Time: 16:20:48
(UTC+00:00)

STARLINK-1046 - Pass Details

Date: 17 February 2020
Orbit: 549 x 550 km, 53.0° (Epoch: 30 March)

Event Time Altitude Azimuth Distance (km) Brightness Sun altitude
Exits shadow 02:23:14 33° 59° (ENE) 932 5.2 -28.7°
Drops below altitude 10° 02:26:20 10° 103° (ESE) 1,815 7.1 -28.1°
Enters shadow 03:26:45 -63° 316° (NW) 11,962 10.3 -16.1°
Sets 04:07:58 0° 160° (SSE) 2,698 7.6 -7.9°
